period_start,C,m1,H,J0,J1,J2,J3,J4,J5,JA,JB,JC,JD,JJ,JK,JN,#
2014-06-13 00:04:12,0.01,0.37,0.00,23.70,27.72,30.16,9.44,39.61,1009.86,2037.96,3346.12,3213.98,3495.92,499.54,492.00,16.52,0000 0000 0000 0000 000000
2014-06-13 00:09:13,0.00,0.37,0.00,23.84,27.72,30.16,9.44,39.61,1009.88,2037.96,3346.02,3213.96,3495.80,499.74,491.76,16.57,0000 0000 0000 0000 000000
2014-06-13 00:14:13,0.02,0.37,0.00,23.89,27.71,30.20,9.42,39.59,1009.92,2037.97,3346.00,3213.69,3495.22,499.66,491.72,16.61,0000 0000 0000 0000 000000
2014-06-13 00:19:15,0.01,0.37,0.00,23.93,27.72,30.23,9.41,39.44,1010.03,2037.97,3345.97,3213.23,3495.02,499.99,492.02,16.65,0000 0000 0000 0000 000000
2014-06-13 00:24:16,0.01,0.37,0.00,23.90,27.72,30.27,9.56,39.51,1010.22,2037.99,3345.60,3213.05,3495.00,499.93,492.09,16.69,0000 0000 0000 0000 000000
2014-06-13 00:29:17,0.00,0.37,0.00,23.78,27.72,30.30,9.51,39.74,1010.27,2037.96,3345.06,3213.00,3494.98,500.12,492.42,16.73,0000 0000 0000 0000 000000
2014-06-13 00:34:18,0.01,0.37,0.00,23.58,27.72,30.33,9.53,39.66,1010.27,2037.95,3344.99,3213.00,3494.82,500.10,492.67,16.78,0000 0000 0000 0000 000000
2014-06-13 00:39:20,0.01,0.37,0.00,23.47,27.72,30.36,9.52,39.52,1010.26,2037.97,3344.91,3212.98,3494.43,500.30,493.02,16.82,0000 0000 0000 0000 000000
2014-06-13 00:44:21,0.01,0.37,0.00,23.41,27.72,30.36,9.50,39.55,1010.20,2037.96,3344.43,3212.94,3494.08,499.86,492.67,16.86,0000 0000 0000 0000 000000
2014-06-13 00:49:22,0.01,0.37,0.00,23.35,27.72,30.36,9.49,39.30,1010.08,2037.94,3344.03,3212.61,3494.01,499.72,492.60,16.90,0000 0000 0000 0000 000000
2014-06-13 00:54:23,0.00,0.37,0.00,23.29,27.72,30.36,9.50,39.72,1009.84,2037.97,3344.00,3212.48,3494.00,500.04,493.02,16.94,0000 0000 0000 0000 000000
2014-06-13 00:59:25,0.01,0.37,0.00,23.27,27.70,30.30,9.58,39.52,1009.79,2037.99,3343.99,3212.39,3494.00,500.22,493.14,16.98,0000 0000 0000 0000 000000
2014-06-13 01:04:26,0.00,0.37,0.00,23.39,27.70,30.25,9.56,39.45,1009.78,2037.99,3343.94,3212.12,3493.99,499.67,492.37,17.03,0000 0000 0000 0000 000000
2014-06-13 01:09:27,0.01,0.37,0.00,23.67,27.67,30.20,9.51,39.47,1009.78,2037.99,3343.50,3212.03,3493.95,500.14,492.35,17.07,0000 0000 0000 0000 000000
2014-06-13 01:14:28,0.01,0.37,0.00,23.66,27.67,30.19,9.47,39.56,1009.77,2037.99,3343.11,3212.00,3493.64,499.82,492.06,17.11,0000 0000 0000 0000 000000
2014-06-13 01:19:29,0.01,0.37,0.00,23.54,27.67,30.19,9.60,39.64,1009.76,2037.99,3343.00,3212.00,3493.12,500.19,492.62,17.15,0000 0000 0000 0000 000000
2014-06-13 01:24:30,0.00,0.37,0.00,23.50,27.67,30.19,9.51,39.63,1009.70,2037.99,3343.00,3211.99,3493.01,499.92,492.61,17.19,0000 0000 0000 0000 000000
2014-06-13 01:29:31,0.02,0.38,0.00,23.51,27.67,30.17,9.46,39.67,1009.38,2037.98,3342.64,3211.75,3492.99,500.04,492.33,17.24,0000 0000 0000 0000 000000
2014-06-13 01:34:32,0.02,0.38,0.00,23.55,27.67,30.14,9.57,39.53,1009.30,2037.99,3342.06,3211.21,3492.89,500.44,492.59,17.28,0000 0000 0000 0000 000000
2014-06-13 01:39:33,0.01,0.38,0.00,23.58,27.67,30.10,9.45,39.59,1009.29,2037.99,3342.00,3211.05,3492.41,499.90,492.01,17.32,0000 0000 0000 0000 000000
2014-06-13 01:44:34,0.00,0.38,0.00,23.63,27.67,30.07,9.45,39.66,1009.28,2037.99,3341.98,3211.00,3492.02,499.98,492.13,17.36,0000 0000 0000 0000 000000
2014-06-13 01:49:35,0.01,0.38,0.00,23.68,27.67,30.04,9.47,39.60,1009.28,2037.98,3341.61,3210.98,3492.00,500.20,492.24,17.40,0000 0000 0000 0000 000000
2014-06-13 01:54:36,0.03,0.38,0.00,23.73,27.67,30.02,9.51,39.75,1009.11,2037.98,3341.02,3210.66,3491.75,500.30,492.18,17.45,0000 0000 0000 0000 000000
2014-06-13 01:59:37,0.02,0.38,0.00,23.79,27.69,29.97,9.49,39.70,1009.00,2037.96,3340.81,3210.04,3491.08,499.81,491.40,17.49,0000 0000 0000 0000 000000
2014-06-13 02:04:39,0.01,0.38,0.00,23.84,27.70,29.96,9.49,39.77,1008.83,2037.88,3340.10,3210.00,3490.99,500.14,491.80,17.53,0000 0000 0000 0000 000000
2014-06-13 02:09:40,-0.00,0.38,0.00,23.89,27.71,29.97,9.49,39.64,1008.82,2037.78,3339.98,3209.83,3490.66,500.31,491.75,17.57,0000 0000 0000 0000 000000
2014-06-13 02:14:41,0.02,0.38,0.00,23.94,27.72,29.98,9.48,39.91,1008.81,2037.60,3339.40,3209.14,3490.07,499.76,491.10,17.61,0000 0000 0000 0000 000000
2014-06-13 02:19:42,0.01,0.38,0.00,23.98,27.74,30.00,9.40,39.60,1008.80,2037.55,3339.01,3209.00,3489.99,499.98,491.22,17.66,0000 0000 0000 0000 000000
2014-06-13 02:24:43,-0.03,0.38,0.00,24.03,27.75,30.02,9.50,39.74,1008.82,2037.18,3338.73,3208.92,3489.48,500.15,491.22,17.70,0000 0000 0000 0000 000000
2014-06-13 02:29:44,0.02,0.38,0.00,24.07,27.77,30.04,9.52,39.84,1008.80,2037.01,3338.03,3208.13,3489.00,500.21,491.29,17.74,0000 0000 0000 0000 000000
2014-06-13 02:34:45,0.02,0.38,0.00,24.12,27.79,30.06,9.53,39.71,1008.78,2037.00,3337.54,3207.98,3488.63,500.34,491.26,17.78,0000 0000 0000 0000 000000
2014-06-13 02:39:46,0.01,0.38,0.00,24.16,27.81,30.08,9.47,39.62,1008.62,2037.01,3337.04,3207.90,3488.07,499.96,490.71,17.82,0000 0000 0000 0000 000000
2014-06-13 02:44:48,0.02,0.38,0.00,24.20,27.82,30.11,9.43,39.59,1008.41,2037.00,3336.91,3207.21,3487.98,499.92,490.66,17.87,0000 0000 0000 0000 000000
2014-06-13 02:49:49,0.03,0.39,0.00,24.24,27.85,30.12,9.50,39.57,1008.33,2037.00,3336.14,3207.00,3487.40,499.84,490.50,17.91,0000 0000 0000 0000 000000
2014-06-13 02:54:50,0.01,0.39,0.00,24.28,27.87,30.15,9.43,39.50,1008.32,2037.00,3335.89,3206.73,3487.00,500.13,490.60,17.95,0000 0000 0000 0000 000000
2014-06-13 02:59:51,0.04,0.39,0.00,24.31,27.89,30.17,9.48,39.49,1008.30,2036.99,3335.11,3206.06,3486.63,500.22,490.56,17.99,0000 0000 0000 0000 000000
2014-06-13 03:04:52,0.01,0.39,0.00,24.34,27.91,30.20,9.35,39.62,1008.17,2036.98,3334.85,3205.98,3486.03,499.76,490.16,18.03,0000 0000 0000 0000 000000
2014-06-13 03:09:53,0.02,0.39,0.00,24.38,27.93,30.23,9.47,39.61,1008.03,2036.88,3334.11,3205.45,3485.80,500.23,490.50,18.07,0000 0000 0000 0000 000000
2014-06-13 03:14:54,-0.02,0.39,0.00,24.41,27.95,30.25,9.40,39.64,1007.90,2036.50,3333.81,3205.01,3485.08,500.28,490.54,18.12,0000 0000 0000 0000 000000
2014-06-13 03:19:55,-0.01,0.39,0.00,24.45,27.97,30.29,9.47,39.65,1007.84,2036.13,3333.10,3204.79,3484.85,500.40,490.36,18.16,0000 0000 0000 0000 000000
2014-06-13 03:24:56,0.03,0.39,0.00,24.49,28.00,30.31,9.43,39.53,1007.83,2036.01,3332.81,3204.08,3484.09,499.92,489.84,18.20,0000 0000 0000 0000 000000
2014-06-13 03:29:57,0.01,0.39,0.00,24.53,28.02,30.34,9.43,39.62,1007.83,2036.00,3332.07,3203.96,3483.93,500.08,490.03,18.24,0000 0000 0000 0000 000000
2014-06-13 03:34:58,0.05,0.39,0.00,24.57,28.05,30.36,9.39,39.45,1007.82,2036.00,3331.76,3203.30,3483.18,500.21,489.94,18.28,0000 0000 0000 0000 000000
2014-06-13 03:40:00,0.01,0.39,0.00,24.60,28.08,30.38,9.46,39.63,1007.80,2036.00,3331.05,3202.98,3482.91,499.80,489.66,18.33,0000 0000 0000 0000 000000
2014-06-13 03:45:01,0.04,0.40,0.00,24.63,28.11,30.41,9.43,39.40,1007.51,2035.96,3330.53,3202.51,3482.12,499.86,489.52,18.37,0000 0000 0000 0000 000000
2014-06-13 03:50:01,0.01,0.40,0.00,24.67,28.14,30.44,9.43,39.54,1007.38,2035.93,3330.01,3202.03,3481.99,500.02,489.35,18.41,0000 0000 0000 0000 000000
2014-06-13 03:55:02,0.01,0.40,0.00,24.71,28.16,30.46,9.45,39.60,1007.35,2035.72,3329.56,3201.91,3481.33,500.05,489.34,18.45,0000 0000 0000 0000 000000
2014-06-13 04:00:03,-0.02,0.40,0.00,24.74,28.19,30.50,9.41,39.53,1007.35,2035.24,3329.00,3201.12,3480.96,500.28,489.43,18.49,0000 0000 0000 0000 000000
2014-06-13 04:05:04,0.02,0.40,0.00,24.78,28.22,30.52,9.41,39.81,1007.34,2035.04,3328.38,3200.98,3480.35,499.95,489.22,18.53,0000 0000 0000 0000 000000
2014-06-13 04:10:05,0.03,0.40,0.00,24.81,28.25,30.56,9.44,39.64,1007.34,2035.01,3327.97,3200.38,3479.98,500.19,489.43,18.58,0000 0000 0000 0000 000000
2014-06-13 04:15:07,0.03,0.40,0.00,24.82,28.28,30.60,9.41,39.67,1007.30,2035.00,3327.25,3200.00,3479.37,500.34,489.44,18.62,0000 0000 0000 0000 000000
2014-06-13 04:20:08,0.01,0.40,0.00,24.86,28.31,30.63,9.42,39.73,1007.06,2035.00,3327.00,3199.71,3479.00,500.35,489.32,18.66,0000 0000 0000 0000 000000
2014-06-13 04:25:09,0.04,0.40,0.00,24.87,28.34,30.66,9.45,39.53,1006.89,2034.99,3326.48,3199.06,3478.53,499.84,488.80,18.70,0000 0000 0000 0000 000000
2014-06-13 04:30:10,0.01,0.40,0.00,24.90,28.36,30.69,9.46,39.49,1006.87,2034.97,3326.01,3199.00,3478.02,500.22,488.91,18.74,0000 0000 0000 0000 000000
2014-06-13 04:35:11,0.03,0.40,0.00,24.92,28.39,30.72,9.44,39.48,1006.85,2034.83,3325.50,3198.58,3477.72,500.18,488.95,18.79,0000 0000 0000 0000 000000
2014-06-13 04:40:13,-0.03,0.40,0.00,24.93,28.42,30.75,9.40,39.43,1006.85,2034.44,3324.99,3198.02,3477.04,499.89,488.68,18.83,0000 0000 0000 0000 000000
2014-06-13 04:45:14,-0.00,0.40,0.00,24.96,28.45,30.78,9.35,39.42,1006.85,2034.16,3324.41,3197.92,3476.81,499.86,488.54,18.87,0000 0000 0000 0000 000000
2014-06-13 04:50:15,0.03,0.40,0.00,24.97,28.47,30.80,9.39,39.45,1006.84,2034.02,3323.98,3197.15,3476.08,499.85,488.45,18.91,0000 0000 0000 0000 000000
2014-06-13 04:55:16,0.02,0.40,0.00,24.99,28.50,30.84,9.41,39.42,1006.64,2034.00,3323.22,3196.96,3475.78,500.25,488.82,18.95,0000 0000 0000 0000 000000
2014-06-13 05:00:18,0.03,0.41,0.00,25.01,28.52,30.87,9.42,39.49,1006.42,2034.00,3322.96,3196.32,3475.06,499.96,488.48,19.00,0000 0000 0000 0000 000000
2014-06-13 05:05:20,0.02,0.41,0.00,25.02,28.55,30.89,9.40,39.49,1006.39,2033.99,3322.24,3196.01,3474.94,500.11,488.44,19.04,0000 0000 0000 0000 000000
2014-06-13 05:10:21,0.02,0.41,0.00,25.03,28.57,30.91,9.45,39.53,1006.37,2033.96,3321.91,3195.78,3474.24,499.79,487.98,19.08,0000 0000 0000 0000 000000
2014-06-13 05:15:22,0.03,0.41,0.00,25.05,28.60,30.94,9.36,39.28,1006.37,2033.92,3321.25,3195.12,3473.97,499.94,488.22,19.12,0000 0000 0000 0000 000000
2014-06-13 05:20:23,-0.00,0.41,0.00,25.05,28.62,30.97,9.35,39.27,1006.36,2033.72,3320.93,3194.99,3473.37,499.72,488.12,19.16,0000 0000 0000 0000 000000
2014-06-13 05:25:24,-0.01,0.41,0.00,25.06,28.65,30.99,9.43,39.42,1006.36,2033.30,3320.13,3194.44,3473.00,500.16,488.38,19.21,0000 0000 0000 0000 000000
2014-06-13 05:30:25,0.00,0.41,0.00,25.06,28.67,31.03,9.42,39.52,1006.36,2033.09,3319.97,3194.01,3472.73,500.27,488.67,19.25,0000 0000 0000 0000 000000
2014-06-13 05:35:26,0.02,0.41,0.00,25.07,28.69,31.05,9.40,39.44,1006.34,2033.04,3319.27,3193.95,3472.04,499.99,488.38,19.29,0000 0000 0000 0000 000000
2014-06-13 05:40:27,0.03,0.41,0.00,25.07,28.71,31.07,9.43,39.54,1006.23,2033.00,3318.94,3193.25,3471.83,499.90,488.13,19.33,0000 0000 0000 0000 000000
2014-06-13 05:45:28,0.02,0.41,0.00,25.07,28.72,31.08,9.47,39.52,1006.16,2033.00,3318.18,3193.00,3471.08,499.98,488.31,19.37,0000 0000 0000 0000 000000
2014-06-13 05:50:30,0.00,0.41,0.00,25.09,28.75,31.11,9.40,39.48,1006.01,2033.00,3317.99,3192.88,3470.98,499.92,488.12,19.41,0000 0000 0000 0000 000000
2014-06-13 05:55:31,0.04,0.41,0.00,25.08,28.76,31.13,9.39,39.48,1005.89,2033.00,3317.49,3192.18,3470.63,500.36,488.34,19.46,0000 0000 0000 0000 000000
2014-06-13 06:00:32,0.01,0.42,0.00,25.08,28.78,31.14,9.36,39.44,1005.87,2032.98,3317.01,3192.00,3470.02,500.08,488.12,19.50,0000 0000 0000 0000 000000
2014-06-13 06:05:32,0.01,0.42,0.00,25.07,28.80,31.17,9.47,39.56,1005.86,2032.97,3316.69,3191.94,3469.97,500.40,488.36,19.54,0000 0000 0000 0000 000000
2014-06-13 06:10:33,0.04,0.42,0.00,25.06,28.81,31.18,9.43,39.48,1005.79,2032.97,3316.06,3191.40,3469.39,500.42,488.50,19.58,0000 0000 0000 0000 000000
2014-06-13 06:15:34,0.00,0.42,0.00,25.05,28.82,31.18,9.40,39.33,1005.47,2032.89,3315.86,3191.01,3469.01,500.37,488.28,19.62,0000 0000 0000 0000 000000
2014-06-13 06:20:35,0.01,0.42,0.00,25.06,28.85,31.20,9.42,39.48,1005.40,2032.74,3315.12,3190.93,3468.85,499.99,487.95,19.67,0000 0000 0000 0000 000000
2014-06-13 06:25:37,0.02,0.42,0.00,25.05,28.85,31.22,9.40,39.53,1005.39,2032.54,3314.90,3190.24,3468.09,499.94,487.61,19.71,0000 0000 0000 0000 000000
2014-06-13 06:30:38,-0.00,0.42,0.00,25.05,28.87,31.23,9.36,39.39,1005.39,2032.28,3314.07,3189.96,3467.75,499.87,487.65,19.75,0000 0000 0000 0000 000000
2014-06-13 06:35:39,0.03,0.42,0.00,25.05,28.87,31.24,9.48,39.61,1005.39,2032.12,3313.50,3189.41,3467.07,500.07,487.86,19.79,0000 0000 0000 0000 000000
2014-06-13 06:40:40,0.01,0.42,0.00,25.04,28.89,31.24,9.43,39.49,1005.39,2032.12,3313.01,3189.01,3466.98,499.93,487.83,19.83,0000 0000 0000 0000 000000
2014-06-13 06:45:41,0.01,0.42,0.00,25.04,28.90,31.25,9.41,39.37,1005.38,2032.06,3312.84,3188.99,3466.38,500.18,487.95,19.88,0000 0000 0000 0000 000000
2014-06-13 06:50:42,0.03,0.42,0.00,25.03,28.90,31.26,9.35,39.46,1005.34,2032.05,3312.08,3188.57,3466.01,500.03,487.87,19.92,0000 0000 0000 0000 000000
2014-06-13 06:55:43,0.00,0.42,0.00,25.02,28.92,31.26,9.42,39.38,1005.19,2032.02,3311.99,3188.05,3465.97,500.08,487.87,19.96,0000 0000 0000 0000 000000
2014-06-13 07:00:44,0.02,0.42,0.00,25.02,28.92,31.28,9.43,39.50,1005.26,2032.02,3311.57,3188.00,3465.47,500.07,487.83,20.00,0000 0000 0000 0000 000000
2014-06-13 07:05:45,0.01,0.42,0.00,25.02,28.92,31.28,9.39,39.54,1005.24,2032.00,3311.01,3187.85,3465.02,500.43,488.23,20.04,0000 0000 0000 0000 000000
2014-06-13 07:10:47,0.03,0.43,0.00,25.02,28.93,31.28,9.42,39.58,1005.05,2032.00,3310.66,3187.13,3464.89,499.83,487.49,20.09,0000 0000 0000 0000 000000
2014-06-13 07:15:48,0.02,0.43,0.00,25.01,28.95,31.29,9.39,39.45,1004.91,2032.00,3310.03,3187.00,3464.16,499.98,487.64,20.13,0000 0000 0000 0000 000000
2014-06-13 07:20:49,0.00,0.43,0.00,25.00,28.95,31.30,9.45,39.46,1004.89,2032.00,3309.95,3186.96,3464.00,500.37,488.19,20.17,0000 0000 0000 0000 000000
2014-06-13 07:25:50,0.04,0.43,0.00,24.99,28.95,31.30,9.40,39.48,1004.68,2032.00,3309.19,3186.34,3463.84,499.77,487.40,20.21,0000 0000 0000 0000 000000
2014-06-13 07:30:51,0.01,0.43,0.00,24.97,28.95,31.31,9.38,39.46,1004.43,2032.00,3309.00,3186.03,3463.20,500.10,487.74,20.25,0000 0000 0000 0000 000000
2014-06-13 07:35:52,0.02,0.43,0.00,24.96,28.95,31.33,9.42,39.48,1004.41,2031.99,3308.63,3185.87,3462.97,500.13,487.70,20.29,0000 0000 0000 0000 000000
2014-06-13 07:40:53,0.04,0.43,0.00,24.95,28.95,31.37,9.42,39.48,1004.41,2031.99,3308.01,3185.15,3462.34,500.24,487.73,20.34,0000 0000 0000 0000 000000
2014-06-13 07:45:54,0.01,0.43,0.00,24.93,28.95,31.44,9.43,39.65,1004.41,2031.99,3307.76,3185.01,3462.01,500.30,487.91,20.38,0000 0000 0000 0000 000000
2014-06-13 07:50:55,0.01,0.43,0.00,24.88,28.95,31.60,9.42,39.59,1004.41,2031.99,3307.05,3185.00,3461.99,499.76,487.44,20.42,0000 0000 0000 0000 000000
2014-06-13 07:55:56,0.01,0.43,0.00,24.83,28.94,31.70,9.38,39.62,1004.41,2031.99,3306.90,3184.85,3461.70,500.09,487.80,20.46,0000 0000 0000 0000 000000
2014-06-13 08:00:57,0.02,0.44,0.00,24.77,28.92,31.70,9.43,39.45,1004.41,2031.99,3306.35,3184.68,3461.32,499.71,487.53,20.50,0000 0000 0000 0000 000000
2014-06-13 08:05:59,0.02,0.44,0.00,24.73,28.90,31.68,9.47,39.59,1004.41,2031.99,3306.01,3184.24,3461.05,500.33,488.16,20.55,0000 0000 0000 0000 000000
2014-06-13 08:10:59,0.00,0.44,0.00,24.71,28.88,31.63,9.43,39.52,1004.41,2031.99,3305.94,3184.03,3461.00,500.07,487.93,20.59,0000 0000 0000 0000 000000
2014-06-13 08:16:00,0.01,0.44,0.00,24.69,28.86,31.59,9.47,39.41,1004.77,2032.00,3305.52,3184.00,3461.00,499.98,488.12,20.63,0000 0000 0000 0000 000000
2014-06-13 08:21:01,0.01,0.44,0.00,24.67,28.83,31.53,9.46,39.39,1004.73,2032.02,3305.07,3184.00,3460.99,500.12,488.42,20.67,0000 0000 0000 0000 000000
2014-06-13 08:26:02,0.02,0.44,0.00,24.65,28.81,31.26,9.43,39.48,1004.45,2032.10,3305.00,3184.00,3460.98,500.13,488.14,20.71,0000 0000 0000 0000 000000
2014-06-13 08:31:04,0.03,0.44,0.00,24.61,28.78,31.06,9.44,39.48,1004.43,2032.30,3305.00,3184.00,3460.94,499.88,487.84,20.76,0000 0000 0000 0000 000000
2014-06-13 08:36:04,0.06,0.44,0.00,24.55,28.75,31.00,9.38,39.67,1004.42,2032.82,3304.68,3183.99,3460.67,499.81,487.94,20.80,0000 0000 0000 0000 000000
2014-06-13 08:41:06,0.02,0.44,0.00,24.53,28.72,31.19,9.49,39.68,1004.22,2032.92,3304.10,3183.97,3460.12,500.08,488.05,20.84,0000 0000 0000 0000 000000
2014-06-13 08:46:07,0.01,0.44,0.00,24.57,28.70,31.26,9.45,39.59,1003.99,2032.97,3304.00,3183.91,3460.03,500.09,487.99,20.88,0000 0000 0000 0000 000000
2014-06-13 08:51:08,0.00,0.44,0.00,24.56,28.67,31.22,9.41,39.52,1003.93,2032.99,3304.00,3183.90,3460.02,500.13,488.08,20.92,0000 0000 0000 0000 000000
2014-06-13 08:56:09,0.03,0.44,0.00,24.61,28.64,31.31,9.45,39.73,1003.92,2032.99,3303.69,3183.42,3460.00,500.06,488.21,20.96,0000 0000 0000 0000 000000
2014-06-13 09:01:10,0.00,0.45,0.00,24.64,28.62,31.28,9.43,39.55,1003.84,2033.01,3303.19,3183.18,3459.99,500.23,487.92,21.01,0000 0000 0000 0000 000000
2014-06-13 09:06:11,0.01,0.45,0.00,24.66,28.61,31.26,9.37,39.68,1003.61,2033.02,3303.02,3183.04,3459.98,500.07,487.51,21.05,0000 0000 0000 0000 000000
2014-06-13 09:11:12,0.00,0.45,0.00,24.69,28.60,31.25,9.39,39.71,1003.44,2033.05,3302.99,3183.00,3459.88,500.16,487.64,21.09,0000 0000 0000 0000 000000
2014-06-13 09:16:13,0.02,0.45,0.00,24.71,28.60,31.20,9.41,39.71,1003.45,2033.11,3302.81,3183.00,3459.43,499.97,487.46,21.13,0000 0000 0000 0000 000000
2014-06-13 09:21:14,0.02,0.45,0.00,24.71,28.60,31.12,9.46,39.82,1003.43,2033.12,3302.14,3182.99,3459.03,500.07,487.51,21.17,0000 0000 0000 0000 000000
2014-06-13 09:26:15,0.02,0.45,0.00,24.71,28.60,31.07,9.40,39.68,1003.42,2033.16,3302.00,3182.76,3459.00,500.13,487.81,21.22,0000 0000 0000 0000 000000
2014-06-13 09:31:16,0.01,0.45,0.00,24.72,28.60,31.03,9.41,39.64,1003.16,2033.16,3301.80,3182.17,3458.93,499.72,487.01,21.26,0000 0000 0000 0000 000000
2014-06-13 09:36:17,0.05,0.45,0.00,24.74,28.60,31.01,9.42,39.68,1002.96,2033.31,3301.08,3182.00,3458.45,500.54,487.64,21.30,0000 0000 0000 0000 000000
2014-06-13 09:41:18,0.01,0.45,0.00,24.72,28.60,31.03,9.37,39.63,1002.94,2033.43,3301.00,3181.99,3458.05,500.10,487.50,21.34,0000 0000 0000 0000 000000
2014-06-13 09:46:19,-0.01,0.45,0.00,24.72,28.60,31.02,9.37,39.74,1002.94,2033.18,3300.63,3181.84,3457.99,499.68,486.94,21.38,0000 0000 0000 0000 000000
2014-06-13 09:51:20,0.05,0.45,0.00,24.72,28.62,31.01,9.38,39.54,1003.08,2033.41,3300.11,3181.47,3457.94,499.71,487.11,21.42,0000 0000 0000 0000 000000
2014-06-13 09:56:21,0.02,0.45,0.00,24.72,28.62,31.02,9.47,39.50,1003.30,2033.39,3300.00,3181.08,3457.38,500.16,487.56,21.47,0000 0000 0000 0000 000000
2014-06-13 10:01:23,0.03,0.46,0.00,24.70,28.62,31.03,9.40,39.59,1002.95,2033.49,3299.57,3181.00,3457.01,500.04,487.22,21.51,0000 0000 0000 0000 000000
2014-06-13 10:06:24,-0.02,0.46,0.00,24.68,28.63,31.05,9.43,39.54,1002.95,2033.25,3299.01,3180.82,3456.88,500.31,487.52,21.55,0000 0000 0000 0000 000000
2014-06-13 10:11:25,0.04,0.46,0.00,24.67,28.65,31.06,9.48,39.68,1002.96,2033.18,3298.69,3180.17,3456.24,500.16,487.43,21.59,0000 0000 0000 0000 000000
2014-06-13 10:16:25,0.01,0.46,0.00,24.65,28.65,31.08,9.35,39.52,1002.95,2033.10,3298.04,3180.00,3456.01,500.01,487.26,21.63,0000 0000 0000 0000 000000
2014-06-13 10:21:27,0.02,0.46,0.00,24.65,28.65,31.09,9.42,39.62,1002.94,2033.12,3297.79,3179.91,3455.90,500.06,487.37,21.68,0000 0000 0000 0000 000000
2014-06-13 10:26:28,0.05,0.46,0.00,24.63,28.65,31.14,9.42,39.52,1002.94,2033.12,3297.04,3179.13,3455.10,500.51,487.77,21.72,0000 0000 0000 0000 000000
2014-06-13 10:31:29,0.01,0.46,0.00,24.59,28.65,31.14,9.37,39.63,1002.94,2033.06,3296.68,3179.00,3454.96,499.53,487.13,21.76,0000 0000 0000 0000 000000
2014-06-13 10:36:30,0.04,0.46,0.00,24.52,28.65,31.19,9.44,39.56,1002.93,2033.08,3296.03,3178.63,3454.33,499.73,487.20,21.80,0000 0000 0000 0000 000000
2014-06-13 10:41:31,0.04,0.46,0.00,24.43,28.65,31.31,9.44,39.51,1002.96,2033.21,3295.69,3178.04,3454.00,499.98,487.65,21.84,0000 0000 0000 0000 000000
2014-06-13 10:46:32,0.01,0.46,0.00,24.37,28.65,31.39,9.48,39.51,1002.94,2033.20,3295.01,3177.98,3453.62,499.83,487.55,21.89,0000 0000 0000 0000 000000
2014-06-13 10:51:33,0.06,0.47,0.00,24.35,28.62,31.37,9.42,39.48,1002.95,2033.41,3294.41,3177.53,3453.04,499.98,487.83,21.93,0000 0000 0000 0000 000000
2014-06-13 10:56:34,0.05,0.47,0.00,24.34,28.61,31.32,9.42,39.57,1002.96,2033.67,3293.81,3177.01,3452.78,500.02,487.77,21.97,0000 0000 0000 0000 000000
2014-06-13 11:01:35,0.11,0.47,0.00,24.34,28.60,31.29,9.51,39.52,1002.95,2033.80,3292.40,3176.14,3451.62,500.13,488.12,22.01,0000 0000 0000 0000 000000
2014-06-13 11:06:36,0.08,0.48,0.00,24.35,28.58,31.24,9.37,39.43,1002.94,2033.91,3290.85,3175.03,3450.43,499.76,487.76,22.05,0000 0000 0000 0000 000000
2014-06-13 11:11:38,0.03,0.48,0.00,24.35,28.57,31.19,9.38,39.50,1002.96,2033.85,3289.90,3174.31,3449.83,500.01,487.82,22.10,0000 0000 0000 0000 000000
2014-06-13 11:16:38,0.04,0.48,0.00,24.37,28.55,31.14,9.38,39.48,1002.98,2033.88,3289.00,3173.92,3449.07,499.74,487.49,22.14,0000 0000 0000 0000 000000
2014-06-13 11:21:39,0.07,0.48,0.00,24.37,28.55,31.06,9.41,39.52,1002.95,2033.97,3287.97,3173.08,3448.31,500.18,487.91,22.18,0000 0000 0000 0000 000000
2014-06-13 11:26:40,0.03,0.49,0.00,24.39,28.52,31.02,9.43,39.57,1002.97,2033.97,3287.11,3172.67,3447.96,499.92,487.67,22.22,0000 0000 0000 0000 000000
2014-06-13 11:31:41,0.03,0.49,0.00,24.38,28.52,30.99,9.43,39.31,1002.95,2033.98,3286.83,3172.10,3447.36,500.05,487.86,22.26,0000 0000 0000 0000 000000
2014-06-13 11:36:42,0.01,0.49,0.00,24.37,28.51,30.96,9.44,39.46,1002.94,2033.99,3286.08,3171.99,3447.01,500.10,487.85,22.30,0000 0000 0000 0000 000000
2014-06-13 11:41:43,0.00,0.49,0.00,24.37,28.50,30.96,9.33,39.52,1002.94,2033.99,3285.99,3171.95,3446.95,499.72,487.47,22.35,0000 0000 0000 0000 000000
2014-06-13 11:46:44,0.02,0.49,0.00,24.37,28.50,30.94,9.42,39.55,1002.91,2033.99,3285.87,3171.59,3446.47,500.10,487.96,22.39,0000 0000 0000 0000 000000
2014-06-13 11:51:45,0.03,0.49,0.00,24.37,28.50,30.93,9.32,39.48,1002.73,2033.99,3285.10,3171.07,3446.04,499.80,487.45,22.43,0000 0000 0000 0000 000000
2014-06-13 11:56:46,0.00,0.49,0.00,24.37,28.50,30.94,9.37,39.47,1002.80,2033.99,3285.00,3171.00,3446.00,499.94,487.72,22.47,0000 0000 0000 0000 000000
2014-06-13 12:01:48,0.01,0.49,0.00,24.37,28.48,30.96,9.48,39.42,1002.86,2033.99,3284.77,3170.99,3445.97,500.25,488.04,22.51,0000 0000 0000 0000 000000
2014-06-13 12:06:49,0.02,0.49,0.00,24.35,28.47,30.94,9.39,39.42,1002.55,2033.99,3284.10,3170.91,3445.58,500.01,487.64,22.56,0000 0000 0000 0000 000000
2014-06-13 12:11:50,0.06,0.50,0.00,24.33,28.47,30.94,9.43,39.38,1002.63,2033.99,3283.23,3170.05,3444.74,500.01,487.53,22.60,0000 0000 0000 0000 000000
2014-06-13 12:16:51,0.08,0.50,0.00,24.33,28.47,30.95,9.31,39.28,1002.60,2033.99,3281.79,3169.09,3443.76,499.79,487.44,22.64,0000 0000 0000 0000 000000
2014-06-13 12:21:52,0.03,0.50,0.00,24.32,28.47,30.94,9.36,39.40,1002.47,2033.99,3281.01,3168.54,3443.03,499.79,487.41,22.68,0000 0000 0000 0000 000000
2014-06-13 12:26:53,0.03,0.50,0.00,24.29,28.47,30.96,9.36,39.48,1002.53,2034.01,3280.34,3168.04,3442.88,499.29,487.10,22.72,0000 0000 0000 0000 000000
2014-06-13 12:31:55,0.03,0.50,0.00,24.27,28.46,30.97,9.30,39.38,1002.50,2034.01,3279.66,3167.78,3442.07,499.89,487.53,22.77,0000 0000 0000 0000 000000
2014-06-13 12:36:56,0.04,0.51,0.00,24.26,28.45,30.97,9.41,39.60,1002.49,2034.01,3278.97,3167.09,3441.78,500.02,487.66,22.81,0000 0000 0000 0000 000000
2014-06-13 12:41:57,0.07,0.51,0.00,24.24,28.45,30.97,9.42,39.58,1002.50,2034.04,3277.86,3166.48,3440.91,500.26,488.12,22.85,0000 0000 0000 0000 000000
2014-06-13 12:46:58,0.09,0.51,0.00,24.21,28.45,30.99,9.41,39.42,1002.48,2034.04,3276.25,3165.36,3439.76,499.81,487.72,22.89,0000 0000 0000 0000 000000
2014-06-13 12:51:59,0.08,0.51,0.00,24.20,28.45,30.99,9.37,39.58,1002.47,2034.04,3274.58,3164.26,3438.55,499.72,487.75,22.93,0000 0000 0000 0000 000000
2014-06-13 12:57:00,0.03,0.52,0.00,24.18,28.42,31.00,9.43,39.52,1002.49,2034.06,3273.74,3163.86,3437.96,500.18,488.11,22.98,0000 0000 0000 0000 000000
2014-06-13 13:02:01,0.06,0.52,0.00,24.16,28.42,31.02,9.53,39.68,1002.51,2034.07,3272.68,3163.02,3437.11,500.11,488.00,23.02,0000 0000 0000 0000 000000